• In Hungary
  • List of Countries
  • For 7 days
  • Water Temperature
  • Satellite Maps
  • Weather Map
  • News
  • Weather Widgets
  • user-avatar
    Login

    Hourly Weather Bangalore

    Today, 25 September, Monday

    Time Temperature Precipitation Wind Pressure Humidity
    00:00 +24°C° 1.1 mm 2 mps 682 mmHg 86%
    01:00 +24°C° 1.1 mm 2 mps 682 mmHg 87%
    02:00 +22°C° 1.1 mm 3 mps 682 mmHg 87%
    03:00 +22°C° 0.8 mm 3 mps 682 mmHg 87%
    04:00 +22°C° 0.8 mm 3 mps 682 mmHg 87%
    05:00 +22°C° 0.8 mm 3 mps 682 mmHg 87%
    06:00 +22°C° 0.8 mm 3 mps 682 mmHg 84%
    07:00 +24°C° 0.8 mm 3 mps 683 mmHg 82%
    08:00 +24°C° 0.8 mm 3 mps 683 mmHg 79%
    09:00 +25°C° 0.8 mm 3 mps 683 mmHg 76%
    10:00 +26°C° 0.8 mm 3 mps 683 mmHg 73%
    11:00 +27°C° 0.8 mm 3 mps 683 mmHg 69%
    12:00 +27°C° 1.4 mm 3 mps 682 mmHg 69%
    13:00 +27°C° 1.4 mm 3 mps 682 mmHg 68%
    14:00 +27°C° 1.4 mm 3 mps 681 mmHg 68%
    15:00 +26°C° 1.7 mm 2 mps 681 mmHg 72%
    16:00 +26°C° 1.7 mm 2 mps 681 mmHg 77%
    17:00 +25°C° 1.7 mm 2 mps 680 mmHg 81%
    18:00 +24°C° 0.8 mm 3 mps 681 mmHg 83%
    19:00 +24°C° 0.8 mm 3 mps 681 mmHg 84%
    20:00 +22°C° 0.8 mm 3 mps 682 mmHg 86%
    21:00 +22°C° 0.2 mm 3 mps 682 mmHg 86%
    22:00 +22°C° 0.2 mm 3 mps 682 mmHg 87%
    23:00 +22°C° 0.2 mm 3 mps 682 mmHg 88%

    Tomorrow, 26 September, Tuesday

    Time Temperature Precipitation Wind Pressure Humidity
    00:00 +21°C° 0 mm 3 mps 682 mmHg 89%
    01:00 +21°C° 0 mm 3 mps 681 mmHg 90%
    02:00 +21°C° 0 mm 3 mps 681 mmHg 91%
    03:00 +21°C° 0.1 mm 3 mps 681 mmHg 92%
    04:00 +21°C° 0.1 mm 3 mps 681 mmHg 92%
    05:00 +20°C° 0.1 mm 3 mps 681 mmHg 93%
    06:00 +21°C° 0.2 mm 3 mps 681 mmHg 89%
    07:00 +22°C° 0.2 mm 3 mps 682 mmHg 86%
    08:00 +24°C° 0.2 mm 3 mps 683 mmHg 83%
    09:00 +25°C° 0.6 mm 3 mps 683 mmHg 78%
    10:00 +26°C° 0.6 mm 3 mps 683 mmHg 73%
    11:00 +28°C° 0.6 mm 3 mps 683 mmHg 68%
    12:00 +28°C° 1.1 mm 3 mps 682 mmHg 66%
    13:00 +28°C° 1.1 mm 3 mps 681 mmHg 64%
    14:00 +29°C° 1.1 mm 3 mps 681 mmHg 62%
    15:00 +28°C° 1 mm 2 mps 681 mmHg 66%
    16:00 +27°C° 1 mm 2 mps 681 mmHg 70%
    17:00 +27°C° 1 mm 1 mps 681 mmHg 73%
    18:00 +26°C° 1 mm 1 mps 681 mmHg 76%
    19:00 +25°C° 1 mm 2 mps 681 mmHg 78%
    20:00 +24°C° 1 mm 2 mps 682 mmHg 80%
    21:00 +24°C° 0.7 mm 2 mps 682 mmHg 82%
    22:00 +24°C° 0.7 mm 2 mps 682 mmHg 83%
    23:00 +24°C° 0.7 mm 2 mps 682 mmHg 85%

    Day after tomorrow, 27 September, Wednesday

    Time Temperature Precipitation Wind Pressure Humidity
    00:00 +23°C° 0.5 mm 2 mps 682 mmHg 86%
    01:00 +23°C° 0.5 mm 2 mps 681 mmHg 87%
    02:00 +23°C° 0.5 mm 2 mps 681 mmHg 89%
    03:00 +23°C° 0.6 mm 2 mps 681 mmHg 89%
    04:00 +21°C° 0.6 mm 2 mps 681 mmHg 90%
    05:00 +21°C° 0.6 mm 2 mps 681 mmHg 91%
    06:00 +22°C° 0.5 mm 3 mps 681 mmHg 89%
    07:00 +22°C° 0.5 mm 3 mps 682 mmHg 87%
    08:00 +22°C° 0.5 mm 3 mps 683 mmHg 86%
    09:00 +24°C° 0.4 mm 3 mps 683 mmHg 83%
    10:00 +25°C° 0.4 mm 3 mps 682 mmHg 81%
    11:00 +25°C° 0.4 mm 3 mps 682 mmHg 78%
    12:00 +26°C° 0.7 mm 3 mps 682 mmHg 75%
    13:00 +27°C° 0.7 mm 3 mps 681 mmHg 72%
    14:00 +28°C° 0.7 mm 3 mps 681 mmHg 69%
    15:00 +27°C° 2 mm 3 mps 680 mmHg 73%
    16:00 +26°C° 2 mm 3 mps 680 mmHg 78%
    17:00 +25°C° 2 mm 2 mps 680 mmHg 82%
    18:00 +25°C° 2 mm 3 mps 681 mmHg 83%
    19:00 +24°C° 2 mm 3 mps 681 mmHg 84%
    20:00 +24°C° 2 mm 3 mps 682 mmHg 86%
    21:00 +24°C° 1.2 mm 3 mps 682 mmHg 87%
    22:00 +22°C° 1.2 mm 4 mps 682 mmHg 87%
    23:00 +22°C° 1.2 mm 4 mps 682 mmHg 88%

    28 September, Thursday

    Time Temperature Precipitation Wind Pressure Humidity
    00:00 +22°C° 0.7 mm 4 mps 681 mmHg 89%
    01:00 +22°C° 0.7 mm 4 mps 681 mmHg 90%
    02:00 +21°C° 0.7 mm 4 mps 680 mmHg 91%
    03:00 +21°C° 0.9 mm 4 mps 680 mmHg 92%
    04:00 +21°C° 0.9 mm 4 mps 680 mmHg 92%
    05:00 +21°C° 0.9 mm 4 mps 680 mmHg 93%
    06:00 +21°C° 0.7 mm 4 mps 681 mmHg 92%
    07:00 +21°C° 0.7 mm 4 mps 682 mmHg 92%
    08:00 +22°C° 0.7 mm 4 mps 682 mmHg 92%
    09:00 +22°C° 0.4 mm 4 mps 682 mmHg 90%
    10:00 +22°C° 0.4 mm 4 mps 682 mmHg 89%
    11:00 +23°C° 0.4 mm 4 mps 682 mmHg 87%
    12:00 +23°C° 0.5 mm 4 mps 681 mmHg 85%
    13:00 +25°C° 0.5 mm 4 mps 681 mmHg 83%
    14:00 +25°C° 0.5 mm 4 mps 680 mmHg 81%
    15:00 +25°C° 1.1 mm 4 mps 680 mmHg 83%
    16:00 +23°C° 1.1 mm 4 mps 680 mmHg 85%
    17:00 +24°C° 1.1 mm 3 mps 681 mmHg 87%
    18:00 +22°C° 0.4 mm 3 mps 681 mmHg 88%
    19:00 +22°C° 0.4 mm 3 mps 681 mmHg 89%
    20:00 +22°C° 0.4 mm 3 mps 682 mmHg 90%
    21:00 +21°C° 0.4 mm 3 mps 682 mmHg 91%
    22:00 +21°C° 0.4 mm 3 mps 682 mmHg 91%
    23:00 +21°C° 0.4 mm 3 mps 682 mmHg 92%

    29 September, Friday

    Time Temperature Precipitation Wind Pressure Humidity
    00:00 +21°C° 0.4 mm 3 mps 681 mmHg 92%
    01:00 +21°C° 0.4 mm 3 mps 681 mmHg 93%
    02:00 +21°C° 0.4 mm 4 mps 680 mmHg 94%
    03:00 +21°C° 0.5 mm 4 mps 680 mmHg 94%
    04:00 +21°C° 0.5 mm 4 mps 681 mmHg 94%
    05:00 +21°C° 0.5 mm 4 mps 681 mmHg 93%
    06:00 +21°C° 0.1 mm 4 mps 681 mmHg 91%
    07:00 +21°C° 0.1 mm 4 mps 682 mmHg 89%
    08:00 +22°C° 0.1 mm 4 mps 682 mmHg 87%
    09:00 +23°C° 0.1 mm 4 mps 682 mmHg 82%
    10:00 +25°C° 0.1 mm 5 mps 682 mmHg 77%
    11:00 +26°C° 0.1 mm 5 mps 682 mmHg 72%
    12:00 +27°C° 0.5 mm 4 mps 682 mmHg 71%
    13:00 +27°C° 0.5 mm 4 mps 681 mmHg 70%
    14:00 +28°C° 0.5 mm 4 mps 680 mmHg 69%
    15:00 +27°C° 1.3 mm 4 mps 680 mmHg 73%
    16:00 +26°C° 1.3 mm 3 mps 680 mmHg 77%
    17:00 +25°C° 1.3 mm 3 mps 680 mmHg 82%
    18:00 +24°C° 0.6 mm 3 mps 681 mmHg 84%
    19:00 +22°C° 0.6 mm 4 mps 681 mmHg 86%
    20:00 +22°C° 0.6 mm 4 mps 682 mmHg 88%
    21:00 +21°C° 0.2 mm 3 mps 682 mmHg 89%
    22:00 +21°C° 0.2 mm 3 mps 682 mmHg 90%
    23:00 +21°C° 0.2 mm 3 mps 682 mmHg 91%

    30 September, Saturday

    Time Temperature Precipitation Wind Pressure Humidity
    00:00 +21°C° 0.1 mm 3 mps 681 mmHg 91%
    01:00 +21°C° 0.1 mm 3 mps 681 mmHg 92%
    02:00 +21°C° 0.1 mm 3 mps 680 mmHg 92%
    03:00 +20°C° 0 mm 3 mps 681 mmHg 93%
    04:00 +20°C° 0 mm 2 mps 681 mmHg 94%
    05:00 +20°C° 0 mm 2 mps 681 mmHg 94%
    06:00 +21°C° 0 mm 2 mps 682 mmHg 90%
    07:00 +23°C° 0 mm 2 mps 682 mmHg 87%
    08:00 +24°C° 0 mm 2 mps 683 mmHg 83%
    09:00 +26°C° 0.1 mm 2 mps 683 mmHg 77%
    10:00 +27°C° 0.1 mm 2 mps 683 mmHg 72%
    11:00 +28°C° 0.1 mm 2 mps 683 mmHg 66%
    12:00 +29°C° 1.3 mm 2 mps 682 mmHg 65%
    13:00 +29°C° 1.3 mm 2 mps 681 mmHg 64%
    14:00 +29°C° 1.3 mm 2 mps 680 mmHg 63%
    15:00 +28°C° 2.3 mm 2 mps 680 mmHg 68%
    16:00 +28°C° 2.3 mm 1 mps 681 mmHg 73%
    17:00 +27°C° 2.3 mm 1 mps 681 mmHg 78%
    18:00 +26°C° 1.2 mm 1 mps 681 mmHg 79%
    19:00 +26°C° 1.2 mm 1 mps 682 mmHg 79%
    20:00 +25°C° 1.2 mm 1 mps 683 mmHg 80%
    21:00 +25°C° 0.3 mm 1 mps 683 mmHg 81%
    22:00 +25°C° 0.3 mm 1 mps 683 mmHg 82%
    23:00 +25°C° 0.3 mm 1 mps 683 mmHg 83%
    Show more